Location: ????????
(41.2031°N, 22.5756°E)
Time: 14:10:22
(UTC+00:00)

CORIOLIS - Pass Details

Date: 01 December 2020
Orbit: 818 x 839 km, 98.7° (Epoch: 20 January)

Event Time Altitude Azimuth Distance (km) Brightness Sun altitude
Rises 15:42:40 0° 155° (SSE) 3,360 7.3 -7.8°
Reaches altitude 10° 15:45:01 10° 152° (SSE) 2,433 6.5 -8.2°
Maximum altitude 15:50:20 62° 72° (ENE) 937 4.2 -9.2°
Drops below altitude 10° 15:55:42 10° 353° (N) 2,460 6.5 -10.1°
Sets 15:58:06 0° 350° (N) 3,400 7.2 -10.5°
